Regional Weather Roundup
Issued by NWS Cleveland, OH

Home | Current Version | Previous Version | Text Only | Print | Product List | Glossary Off
Versions: 1 2 3 4 5 6 7 8 9 10 11 12 13 14 15 16 17 18 19 20 21 22 23 24 25 26 27 28 29 30 31 32 33 34 35 36 37 38 39 40 41 42 43 44 45 46 47 48 49 50

000
ASUS41 KCLE 232110
RWRCLE
OHIO REGIONAL WEATHER ROUNDUP
NATIONAL WEATHER SERVICE WILMINGTON, OH
500 PM EDT WED JUL 23 2014

NOTE: "FAIR" INDICATES FEW OR NO CLOUDS BELOW 12,000 FEET WITH NO
SIGNIFICANT WEATHER AND/OR OBSTRUCTIONS TO VISIBILITY.

OHZ001>008-015>018-024>027-034-035-043-044-232200-
   NORTHWEST OHIO

CITY           SKY/WX    TMP DP  RH WIND       PRES   REMARKS
DEFIANCE       CLOUDY    76  61  59 N10       30.03S
FINDLAY        CLOUDY    71  63  75 NE10      30.01F
TOLEDO EXPRESS CLOUDY    74  59  59 N10       30.03S
TOLEDO METCALF CLOUDY    71  62  73 NE6       30.03S
LIMA           CLOUDY    71  64  78 N10       30.02S
$$

OHZ009>014-019>023-028>033-038-089-232200-
   NORTHEAST OHIO

CITY           SKY/WX    TMP DP  RH WIND       PRES   REMARKS
CLE-HOPKINS    CLOUDY    66  59  78 N14       30.04F
CLE-LAKEFRONT  CLOUDY    67  59  75 N15       30.00F
CUY CO. ARPT   CLOUDY    68  63  83 N9        30.02F
LORAIN-ELYRIA  CLOUDY    68  60  75 N10       30.04S
ASHTABULA      CLOUDY    69  61  75 NW14G22   30.00F
AKRON-CANTON   CLOUDY    70  62  76 N14       30.01S
WOOSTER        CLOUDY    67  62  84 N14       30.02S
MANSFIELD      CLOUDY    67  65  93 N9        30.03S
YOUNGSTOWN     DRIZZLE   66  63  90 NW8       30.00S
$$

OHZ042-051>053-060>062-070>072-077>081-232200-
  SOUTHWEST OHIO

CITY           SKY/WX    TMP DP  RH WIND       PRES   REMARKS
CINC-COVINGTON PTSUNNY   83  71  67 W8        29.98F
CINC-LUNKEN    PTSUNNY   81  69  67 NE6       29.98F
HAMILTON       PTSUNNY   82  70  66 NW7       29.99F
DAYTON         PTSUNNY   79  69  71 N9        30.01F
WRIGHT-PAT AFB PTSUNNY   78  69  73 NW7       29.99F
DAYTON GENERAL PTSUNNY   79  69  71 N9        30.00F
WILMINGTON     PTSUNNY   80  66  62 NW14      30.00F
$$

OHZ036-037-039>041-045>050-054>059-063>069-073>076-082>088-232200-
  CENTRAL AND SOUTHEAST OHIO

CITY           SKY/WX    TMP DP  RH WIND       PRES   REMARKS
COLUMBUS       CLOUDY    81  66  60 NW13      29.97F
OSU AIRPORT    PTSUNNY   79  69  71 N13       29.98F
BOLTON FIELD   PTSUNNY   79  70  73 NW10      29.98F
RICKENBACK AFB PTSUNNY   84  62  47 NW8       29.97S
NEWARK         PTSUNNY   78  68  71 NW5       29.97F
MARION         CLOUDY    69  66  90 NE13      30.01F FOG
LANCASTER      PTSUNNY   81  67  62 NW8       29.97F
ZANESVILLE     PTSUNNY   78  66  66 NW12      29.97F
NEW PHILLY     MOSUNNY   77  68  73 NW10      29.98S
$$



USA.gov is the U.S. government's official web portal to all federal, state and local government web resources and services.